[[{"header":{"parameterUnit":"m.s-1","parameterCategory":1,"la1":30.2991,"la2":30.254,"lo1":-89.0895,"lo2":-89.0444,"dy":0.0017,"dx":0.0017,"nx":28,"ny":28,"refTime":"2024-04-16T21:00:00:Z","depth":0,"parameterNumber":2,"parameterNumberName":"U-component_of_WINDS"},"data":[0,0,0,0,0,0,0,0,0,0,0,0,0,0,0,0,0,0,0,0,0,0,0,0,0,0,0,0,0,0,0,0,0,0,0,0,0,0,0,0,0,0,0,0,0,0,0,0,0,0,0,0,0,0,0,0,0,0,-1.5492,-1.5492,0,-1.555,-1.5551,-1.5552,-1.5559,-1.5558,-1.5558,-1.5557,-1.5616,-1.5618,-1.5621,0,0,0,0,0,0,0,0,0,0,0,0,0,-1.5386,-1.5388,-1.5491,-1.5492,-1.5493,-1.555,-1.5551,-1.5552,-1.5559,-1.5558,-1.5558,-1.5557,-1.5616,-1.5618,-1.5621,0,0,0,0,0,0,0,0,0,0,0,0,0,-1.5437,-1.5388,-1.5491,-1.5503,-1.5505,-1.555,-1.5551,-1.5552,-1.5559,-1.5558,-1.5557,-1.5557,-1.5615,-1.5618,-1.5621,-1.5658,0,0,-1.5631,-1.5632,0,0,0,0,0,0,0,0,-1.5434,-1.5441,-1.5501,-1.5503,-1.5505,-1.5546,-1.5535,-1.5587,-1.5559,-1.5539,-1.5557,-1.5556,-1.5594,-1.5599,-1.5611,-1.566,-1.5663,-1.5631,-1.5633,-1.5634,-1.5635,0,0,0,0,0,0,0,-1.543,-1.5438,-1.5515,-1.5502,-1.5504,-1.5506,-1.5512,-1.5545,-1.557,-1.554,-1.5541,-1.5548,-1.5595,-1.5608,-1.5613,-1.5664,-1.5631,-1.5634,-1.5636,-1.5637,-1.5746,-1.5747,0,0,0,0,0,0,-1.5425,-1.5435,-1.5513,-1.5516,-1.5466,-1.5509,-1.5516,-1.5534,-1.557,-1.5575,-1.5549,-1.5548,-1.5603,-1.5609,-1.5615,-1.566,-1.5634,-1.5637,-1.5639,-1.5745,-1.5747,-1.5748,0,0,0,0,0,0,-1.5422,-1.5431,-1.551,-1.5476,-1.5486,-1.5511,-1.5532,-1.5535,-1.5549,-1.5576,-1.558,-1.5558,-1.5603,-1.5611,-1.5647,-1.5662,-1.5639,-1.5642,-1.5744,-1.5746,-1.5747,-1.5751,0,0,0,0,0,0,-1.5419,-1.5431,-1.5445,-1.5476,-1.5488,-1.5542,-1.5533,-1.5537,-1.5555,-1.5555,-1.5586,-1.5591,-1.5603,-1.5642,-1.565,-1.5666,-1.5644,-1.5743,-1.5745,-1.5747,-1.5749,-1.5752,-1.5755,0,0,0,0,0,-1.5415,-1.5443,-1.5445,-1.5455,-1.5506,-1.5542,-1.5549,-1.5563,-1.5556,-1.557,-1.5588,-1.559,-1.566,-1.5646,-1.5655,-1.5672,-1.5742,-1.5744,-1.5747,-1.5748,-1.5752,-1.5755,0,0,0,0,0,0,-1.5412,-1.5447,-1.545,-1.5489,-1.5513,-1.5544,-1.5562,-1.5566,-1.5592,-1.5591,-1.5607,-1.5614,-1.565,-1.5665,-1.5649,-1.571,-1.57,-1.5704,-1.5698,-1.5702,-1.5704,-1.57,-1.5647,0,0,0,0,0,-1.5416,-1.5442,-1.5472,-1.5503,-1.5515,-1.5537,-1.5553,-1.5562,-1.5587,-1.5597,-1.5617,-1.5641,-1.5669,-1.5686,-1.5713,-1.5752,-1.5759,-1.5768,-1.5771,-1.5773,-1.5776,-1.5798,-1.5803,-1.5755,-1.5755,-1.5755,0,0,-1.5424,-1.5446,-1.5462,-1.5503,-1.5522,-1.555,-1.5545,-1.5574,-1.5594,-1.5601,-1.5637,-1.5653,-1.5681,-1.5719,-1.5737,-1.5732,-1.5791,-1.5776,-1.5777,-1.5779,-1.5801,-1.5805,-1.5809,-1.5757,-1.5756,-1.5756,0,0,-1.5452,-1.5472,-1.55,-1.552,-1.555,-1.5564,-1.5571,-1.5602,-1.5612,-1.5649,-1.5655,-1.5679,-1.5726,-1.5746,-1.5763,-1.58,-1.5802,-1.5808,-1.5821,-1.5843,-1.5847,-1.585,-1.5863,-1.5867,-1.5811,-1.5811,-1.5811,0,-1.5458,-1.5499,-1.5514,-1.5543,-1.5561,-1.5569,-1.5598,-1.5617,-1.5654,-1.5666,-1.5661,-1.5721,-1.574,-1.5783,-1.5792,-1.5805,-1.5814,-1.5804,-1.5845,-1.5848,-1.5852,-1.5864,-1.5869,-1.5812,-1.5812,-1.5812,-1.5812,0,-1.5505,-1.5534,-1.5553,-1.5589,-1.5609,-1.5638,-1.5657,-1.5676,-1.5683,-1.5698,-1.5736,-1.576,-1.5792,-1.5803,-1.581,-1.5847,-1.5843,-1.5842,-1.5832,-1.5856,-1.5868,-1.5873,-1.5813,-1.5812,-1.5812,-1.5812,0,0,-1.5531,-1.5576,-1.5583,-1.5599,-1.5633,-1.5656,-1.5685,-1.5717,-1.5732,-1.5758,-1.5783,-1.5823,-1.5822,-1.5841,-1.585,-1.5869,-1.5897,-1.5865,-1.5866,-1.587,-1.5939,-1.594,-1.5945,-1.59,-1.5901,-1.5901,-1.5937,0,-1.5563,-1.5616,-1.5631,-1.5675,-1.5702,-1.5711,-1.5736,-1.576,-1.5775,-1.58,-1.5817,-1.5845,-1.5841,-1.5852,-1.5872,-1.589,-1.5911,-1.5887,-1.5923,-1.5924,-1.5914,-1.5951,-1.5952,-1.5984,-1.5942,-1.5942,-1.5943,0,-1.5607,-1.5634,-1.5681,-1.5712,-1.5723,-1.5746,-1.5777,-1.5801,-1.5828,-1.5838,-1.5859,-1.5867,-1.5898,-1.5888,-1.5931,-1.5915,-1.5931,-1.5942,-1.5943,-1.5946,-1.5934,-1.5955,-1.5995,-1.5999,-1.5951,-1.595,-1.5949,0,-1.5621,-1.5669,-1.5703,-1.5717,-1.5754,-1.577,-1.5786,-1.5813,-1.5831,-1.5858,-1.587,-1.59,-1.5917,-1.594,-1.5956,-1.5947,-1.5998,-1.5989,-1.6007,-1.6006,-1.6016,-1.6015,-1.6058,-1.6027,-1.6027,-1.6027,-1.6027,0,-1.5655,-1.5683,-1.571,-1.5731,-1.5763,-1.5781,-1.5812,-1.5829,-1.5852,-1.5877,-1.5887,-1.591,-1.593,-1.5956,-1.5969,-1.6003,-1.601,-1.6019,-1.6022,-1.6018,-1.6017,-1.6027,-1.6025,-1.6029,-1.6028,-1.6028,-1.6028,0,-1.5675,-1.5695,-1.5733,-1.5765,-1.5774,-1.5796,-1.5824,-1.5845,-1.5861,-1.5892,-1.59,-1.5925,-1.5956,-1.5975,-1.6014,-1.6023,-1.606,-1.6062,-1.6051,-1.6052,-1.6068,-1.6066,-1.6119,-1.6127,-1.6091,-1.6092,-1.6092,0,-1.5695,-1.5717,-1.5752,-1.5769,-1.5786,-1.5813,-1.5832,-1.5851,-1.587,-1.5903,-1.592,-1.5952,-1.5978,-1.6027,-1.6048,-1.6078,-1.6081,-1.6098,-1.6086,-1.6081,-1.6081,-1.6079,-1.6081,-1.6099,-1.61,-1.61,-1.61,0,-1.5728,-1.5737,-1.5764,-1.5794,-1.5817,-1.5841,-1.5866,-1.588,-1.5902,-1.5923,-1.5955,-1.5976,-1.6016,-1.6047,-1.6079,-1.6096,-1.6102,-1.6104,-1.611,-1.6105,-1.6097,-1.6101,-1.6055,-1.6102,-1.6102,-1.6102,-1.6102,-1.6102,-1.5749,-1.5769,-1.5797,-1.5827,-1.5847,-1.587,-1.5892,-1.591,-1.5937,-1.5971,-1.5981,-1.6014,-1.6041,-1.6085,-1.6103,-1.6129,-1.6127,-1.6135,-1.6137,-1.6139,-1.6139,-1.6094,-1.6135,-1.6135,-1.6135,-1.6135,-1.6135,0,-1.5783,-1.5801,-1.5828,-1.5863,-1.5886,-1.589,-1.5918,-1.5937,-1.5966,-1.5991,-1.6017,-1.6054,-1.6084,-1.6109,-1.614,-1.6157,-1.616,-1.6164,-1.6163,-1.6167,-1.6139,-1.6131,-1.6161,-1.6161,-1.6161,-1.6161,-1.6161,-1.6161,-1.5803,-1.5837,-1.5849,-1.5893,-1.5912,-1.5944,-1.596,-1.5981,-1.6002,-1.6042,-1.6068,-1.6083,-1.6108,-1.6142,-1.617,-1.6177,-1.6187,-1.6191,-1.6198,-1.6171,-1.6169,-1.6166,-1.6158,-1.6193,-1.6193,-1.6223,-1.6223,-1.6224]},{"header":{"parameterUnit":"m.s-1","parameterCategory":1,"la1":30.2991,"la2":30.254,"lo1":-89.0895,"lo2":-89.0444,"dy":0.0017,"dx":0.0017,"nx":28,"ny":28,"refTime":"2024-04-16T21:00:00:Z","depth":0,"parameterNumber":3,"parameterNumberName":"V-component_of_WINDS"},"data":[0,0,0,0,0,0,0,0,0,0,0,0,0,0,0,0,0,0,0,0,0,0,0,0,0,0,0,0,0,0,0,0,0,0,0,0,0,0,0,0,0,0,0,0,0,0,0,0,0,0,0,0,0,0,0,0,0,0,4.0018,4.0018,0,4.0057,4.0057,4.0057,4.0042,4.0041,4.004,4.004,4.0078,4.0079,4.0081,0,0,0,0,0,0,0,0,0,0,0,0,0,3.9927,3.9928,4.0017,4.0018,4.0018,4.0057,4.0057,4.0058,4.0042,4.0041,4.004,4.0039,4.0077,4.0079,4.0081,0,0,0,0,0,0,0,0,0,0,0,0,0,3.9966,3.9929,4.0017,4.0016,4.0016,4.0056,4.0057,4.0058,4.0043,4.0041,4.004,4.0039,4.0076,4.0079,4.0082,4.0126,0,0,4.009,4.0091,0,0,0,0,0,0,0,0,3.9964,3.9969,4.0015,4.0016,4.0016,4.0043,4.0039,4.0081,4.0043,4.0032,4.004,4.0038,4.0067,4.0071,4.0081,4.0128,4.0129,4.009,4.0092,4.0093,4.0094,0,0,0,0,0,0,0,3.9961,3.9967,4.0033,4.0016,4.0016,4.0012,4.0016,4.0047,4.0057,4.0033,4.0032,4.0037,4.0067,4.0078,4.0082,4.013,4.009,4.0093,4.0095,4.0096,4.0213,4.0214,0,0,0,0,0,0,3.9959,3.9965,4.0032,4.0034,3.9986,4.0014,4.0019,4.0036,4.0056,4.0058,4.0038,4.0036,4.0074,4.0078,4.0083,4.0135,4.0093,4.0096,4.0098,4.0212,4.0213,4.0215,0,0,0,0,0,0,3.9957,3.9965,4.003,3.9999,4.0007,4.0018,4.0036,4.0037,4.0048,4.006,4.0062,4.0048,4.0073,4.0079,4.0115,4.0136,4.0097,4.01,4.021,4.0212,4.0214,4.024,0,0,0,0,0,0,3.9954,3.9964,3.9982,4.0,4.0009,4.0063,4.0038,4.0039,4.0054,4.0051,4.007,4.0072,4.0073,4.0111,4.0118,4.0139,4.0102,4.0208,4.0211,4.0213,4.0237,4.0242,4.0247,0,0,0,0,0,3.9951,3.9987,3.9983,3.9991,4.0032,4.0064,4.0069,4.007,4.0055,4.0073,4.008,4.0071,4.0133,4.0115,4.0122,4.0145,4.0207,4.021,4.0213,4.0235,4.0241,4.0247,0,0,0,0,0,0,3.9971,3.999,3.9985,4.0028,4.0045,4.0061,4.0083,4.0077,4.0098,4.0095,4.0094,4.0099,4.0136,4.0144,4.0124,4.0188,4.0167,4.0172,4.0181,4.0187,4.0192,4.0189,4.0104,0,0,0,0,0,3.998,4.0006,4.0021,4.0058,4.0066,4.0073,4.0087,4.0087,4.0103,4.011,4.012,4.0136,4.0158,4.0173,4.0195,4.0238,4.0241,4.0257,4.0262,4.0266,4.027,4.0292,4.0299,4.0226,4.0226,4.0226,0,0,4.0,4.0014,4.003,4.0062,4.0074,4.01,4.0079,4.0107,4.0125,4.0114,4.0148,4.0156,4.0174,4.0213,4.0231,4.0221,4.0291,4.027,4.0274,4.0275,4.0296,4.0303,4.0309,4.0228,4.0228,4.0227,0,0,4.0049,4.0062,4.0094,4.0107,4.0126,4.013,4.0138,4.0155,4.016,4.0195,4.0186,4.0208,4.0248,4.026,4.0271,4.0323,4.0315,4.033,4.0357,4.0378,4.0383,4.0389,4.0406,4.0412,4.0335,4.0335,4.0335,0,4.0071,4.011,4.0111,4.0139,4.0153,4.0144,4.0175,4.0187,4.0212,4.0221,4.021,4.0259,4.027,4.0311,4.0324,4.0334,4.0342,4.0328,4.0383,4.0388,4.0393,4.0409,4.0416,4.0336,4.0336,4.0336,4.0336,0,4.0135,4.0162,4.0185,4.0209,4.0226,4.0255,4.026,4.0276,4.0273,4.0279,4.0313,4.0326,4.035,4.036,4.0358,4.04,4.0393,4.0383,4.0362,4.0401,4.0416,4.0423,4.0339,4.0338,4.0338,4.0337,0,0,4.0198,4.0222,4.0231,4.0241,4.0261,4.0281,4.0309,4.0333,4.0346,4.0364,4.0386,4.042,4.0409,4.0422,4.0421,4.044,4.0479,4.0427,4.0427,4.0435,4.0525,4.0532,4.054,4.0474,4.0475,4.0476,4.0523,0,4.0248,4.0298,4.0299,4.0345,4.0369,4.036,4.0385,4.0399,4.0404,4.0424,4.043,4.0453,4.0438,4.0446,4.0464,4.047,4.0497,4.0467,4.0494,4.0495,4.0489,4.0548,4.0556,4.06,4.0529,4.053,4.0531,0,4.0313,4.0332,4.038,4.0395,4.0405,4.0428,4.0448,4.0468,4.0483,4.0486,4.05,4.0496,4.0523,4.0502,4.054,4.0519,4.053,4.0535,4.0537,4.0538,4.0515,4.055,4.0614,4.062,4.0541,4.054,4.0539,0,4.0352,4.039,4.0424,4.0433,4.0452,4.0467,4.0476,4.049,4.0503,4.0521,4.053,4.055,4.0561,4.0577,4.0578,4.0563,4.0615,4.0595,4.0617,4.0617,4.0628,4.0627,4.0693,4.0637,4.0636,4.0636,4.0636,0,4.0407,4.0437,4.0442,4.0462,4.0495,4.0495,4.0526,4.0533,4.0546,4.0567,4.056,4.058,4.058,4.06,4.0601,4.0631,4.0636,4.0638,4.0638,4.0638,4.0638,4.0645,4.0641,4.0638,4.0638,4.0637,4.0637,0,4.0457,4.0462,4.0497,4.0512,4.0516,4.0539,4.0551,4.057,4.0574,4.06,4.0607,4.0613,4.0636,4.0638,4.0665,4.0665,4.0701,4.0698,4.0696,4.0695,4.0717,4.0714,4.0789,4.0798,4.0736,4.0737,4.0737,0,4.0492,4.0514,4.0531,4.0544,4.0554,4.0576,4.0589,4.059,4.0604,4.0622,4.0638,4.066,4.0678,4.0714,4.072,4.074,4.0737,4.0762,4.074,4.0739,4.0736,4.0734,4.0736,4.0766,4.0766,4.0767,4.0767,0,4.0552,4.0553,4.0573,4.0593,4.0609,4.0625,4.0641,4.0652,4.0654,4.067,4.0693,4.0707,4.0733,4.0754,4.0773,4.0781,4.0774,4.0774,4.078,4.078,4.0778,4.0778,4.0706,4.0772,4.0772,4.0772,4.0771,4.0771,4.0594,4.0613,4.0628,4.065,4.0661,4.0675,4.0693,4.0699,4.0718,4.074,4.0739,4.0764,4.0777,4.0802,4.0811,4.0829,4.0821,4.083,4.0832,4.0834,4.0836,4.0775,4.0833,4.0833,4.0833,4.0833,4.0833,0,4.0653,4.0662,4.0682,4.0703,4.072,4.0712,4.0728,4.0742,4.0765,4.0778,4.0795,4.082,4.084,4.0848,4.0868,4.0881,4.0878,4.0886,4.0884,4.0886,4.0843,4.0835,4.0888,4.0888,4.0888,4.0888,4.0888,4.0888,4.0686,4.0717,4.0719,4.0755,4.0763,4.0788,4.0797,4.0809,4.0819,4.0848,4.0865,4.087,4.088,4.09,4.0918,4.092,4.0926,4.0935,4.0936,4.0895,4.0889,4.0884,4.0877,4.0937,4.0937,4.0977,4.0978,4.0978]}]]